Hourly Data Report for October 31, 2016

All times are specified in Local Standard Time (LST). Add 1 hour to adjust for Daylight Saving Time where and when it is observed.

TORONTO INTL A
ONTARIO

43°40'36.000" N
79°37'50.000" W
173.40 m
6158731
71624
YYZ

Download Data

Hourly Data (October 2016)
Hourly Data Report for October 31, 2016
Temp Definition
°C
Dew Point Temp Definition
°C
Rel Hum Definition
%
Wind Dir Definition
10's deg

Wind Spd Definition
km/h
Visibility Definition
km
Stn Press Definition
kPa
Hmdx Definition


Wind Chill Definition


Weather Definition


TIME
00:00 Legend Double Dagger 2.6 -0.3 81 31 9 24.1 100.20     LegendNANA
01:00 Legend Double Dagger 1.4 -0.4 88 29 9 24.1 100.24     Mainly Clear
02:00 Legend Double Dagger 1.0 -0.9 87 31 5 24.1 100.26     LegendNANA
03:00 Legend Double Dagger 1.6 -0.5 86 31 8 24.1 100.28     LegendNANA
04:00 Legend Double Dagger 1.6 -0.3 87 33 10 24.1 100.29     Clear
05:00 Legend Double Dagger 1.2 -1.5 82 33 7 24.1 100.36     LegendNANA
06:00 Legend Double Dagger 2.0 -1.6 77 35 16 24.1 100.40     LegendNANA
07:00 Legend Double Dagger 1.5 -2.1 77 35 12 24.1 100.45     Clear
08:00 Legend Double Dagger 2.1 -1.5 77 3 9 24.1 100.48     LegendNANA
09:00 Legend Double Dagger 3.6 -1.2 71 3 8 24.1 100.54     LegendNANA
10:00 Legend Double Dagger 4.7 -2.2 61 8 7 24.1 100.49     Mainly Clear
11:00 Legend Double Dagger 5.8 -2.1 57 34 7 24.1 100.52     LegendNANA
12:00 Legend Double Dagger 6.9 -1.0 57 35 4 24.1 100.45     LegendNANA
13:00 Legend Double Dagger 7.2 -1.0 56 36 2 24.1 100.38     Mostly Cloudy
14:00 Legend Double Dagger 8.1 -1.4 51 36 2 24.1 100.35     LegendNANA
15:00 Legend Double Dagger 7.5 -0.2 58 16 13 24.1 100.34     LegendNANA
16:00 Legend Double Dagger 6.9 -0.3 60 15 13 24.1 100.29     Mostly Cloudy
17:00 Legend Double Dagger 6.3 0.0 64 16 8 24.1 100.25     LegendNANA
18:00 Legend Double Dagger 6.0 -0.1 65 13 7 24.1 100.27     LegendNANA
19:00 Legend Double Dagger 5.6 0.0 67 10 8 24.1 100.25     Mainly Clear
20:00 Legend Double Dagger 5.1 0.1 70 10 8 24.1 100.24     LegendNANA
21:00 Legend Double Dagger 5.2 -0.4 67 11 8 24.1 100.17     LegendNANA
22:00 Legend Double Dagger 5.2 0.0 69 12 10 24.1 100.08     Mainly Clear
23:00 Legend Double Dagger 6.7 0.6 65 14 14 24.1 100.03     LegendNANA

Notes on Data Quality.

Legend

  • E = Estimated
  • M = Missing
  • NA = Not Available
  • ‡ = Partner data that is not subject to review by the National Climate Archives
Date modified: